TimeMST,TemperatureF,Dew PointF,Humidity,Sea Level PressureIn,VisibilityMPH,Wind Direction,Wind SpeedMPH,Gust SpeedMPH,PrecipitationIn,Events,Conditions,WindDirDegrees,DateUTC
12:25 AM,8.6,5.0,85,30.37,8.0,WNW,15.0,-,N/A,,Scattered Clouds,290,2013-01-16 07:25:00
12:36 AM,8.6,5.0,85,30.37,7.0,WNW,16.1,-,N/A,,Mostly Cloudy,290,2013-01-16 07:36:00
12:53 AM,9.0,5.0,84,30.51,7.0,WNW,11.5,-,N/A,,Mostly Cloudy,300,2013-01-16 07:53:00
1:44 AM,8.6,5.0,85,30.39,10.0,West,9.2,-,0.00,,Scattered Clouds,280,2013-01-16 08:44:00
1:53 AM,9.0,5.0,84,30.51,10.0,WNW,11.5,-,0.00,,Partly Cloudy,300,2013-01-16 08:53:00
2:45 AM,8.6,6.8,92,30.39,10.0,West,17.3,-,N/A,,Mostly Cloudy,280,2013-01-16 09:45:00
2:53 AM,9.0,6.1,88,30.53,10.0,West,19.6,-,N/A,,Mostly Cloudy,280,2013-01-16 09:53:00
3:01 AM,8.6,6.8,92,30.39,10.0,West,16.1,25.3,N/A,,Scattered Clouds,280,2013-01-16 10:01:00
3:53 AM,8.1,5.0,87,30.52,10.0,North,11.5,-,N/A,,Scattered Clouds,10,2013-01-16 10:53:00
4:53 AM,8.1,5.0,87,30.53,10.0,WNW,11.5,-,N/A,,Scattered Clouds,300,2013-01-16 11:53:00
5:53 AM,3.0,1.0,91,30.58,10.0,North,11.5,-,N/A,,Clear,350,2013-01-16 12:53:00
6:53 AM,7.0,3.9,87,30.56,10.0,NNW,16.1,-,N/A,,Clear,330,2013-01-16 13:53:00
7:53 AM,9.0,5.0,84,30.61,10.0,WNW,12.7,-,N/A,,Clear,300,2013-01-16 14:53:00
8:53 AM,12.0,7.0,80,30.60,10.0,NW,10.4,-,N/A,,Clear,320,2013-01-16 15:53:00
9:53 AM,15.1,10.0,80,30.60,10.0,West,10.4,-,N/A,,Clear,280,2013-01-16 16:53:00
10:53 AM,19.0,10.9,71,30.56,10.0,North,5.8,-,N/A,,Clear,350,2013-01-16 17:53:00
11:53 AM,24.1,12.9,62,30.52,10.0,NNW,5.8,-,N/A,,Clear,330,2013-01-16 18:53:00
1:53 PM,28.0,15.1,58,30.42,10.0,NNW,10.4,-,N/A,,Clear,340,2013-01-16 20:53:00
2:53 PM,28.9,16.0,58,30.42,10.0,NNW,9.2,-,N/A,,Clear,330,2013-01-16 21:53:00
3:53 PM,30.0,14.0,51,30.43,10.0,NW,9.2,-,N/A,,Clear,320,2013-01-16 22:53:00
4:53 PM,28.0,12.9,53,30.45,10.0,WNW,5.8,-,N/A,,Clear,290,2013-01-16 23:53:00
5:53 PM,21.9,10.9,63,30.52,10.0,West,10.4,-,N/A,,Clear,280,2013-01-17 00:53:00
6:53 PM,19.0,10.0,68,30.54,10.0,WNW,6.9,-,N/A,,Clear,290,2013-01-17 01:53:00
7:53 PM,21.0,7.0,55,30.53,10.0,Variable,3.5,-,N/A,,Clear,0,2013-01-17 02:53:00
8:53 PM,16.0,6.1,65,30.54,10.0,North,11.5,-,N/A,,Clear,10,2013-01-17 03:53:00
9:53 PM,12.9,3.9,67,30.54,10.0,NNW,6.9,-,N/A,,Clear,340,2013-01-17 04:53:00
10:53 PM,3.9,-0.9,80,30.56,10.0,NW,4.6,-,N/A,,Clear,310,2013-01-17 05:53:00
11:53 PM,6.1,-0.0,76,30.53,10.0,West,6.9,-,N/A,,Clear,270,2013-01-17 06:53:00